CZ-6A DEB, 56250

Orbit data source: Space-Track

CZ-6A DEB, 56250 is space debris in SSO originally from a launch on Fri, 11 Nov 2022 UTC launched from the Taiyaun Space Center, China (TSC). Debris objects in space refer to the collection of defunct objects orbiting the Earth. Examples of debris include non-operational satellites, rocket bodies, and fragments generated from explosions, collisions, or faulty payload assembly.

Loading next visibility...
Identifier
56250, 2022-151ABS
Orbit
SSO
Country
Flag of CNCN / PRC
Related business
Manufacturer
SAST
Mission
Spacecraft
Bus & Motor
Unknown
Mass
Unknown
Launch date (UTC)
2022-11-11 (4 years ago)
Launch vehicle
Unknown
Launch site
Taiyaun Space Center, China (TSC)
Object type
Payload
Rocket body
Debris
Shape & HBR
Unknown shape, 0.1 m
Radar Cross Section
Small (<0.1 m²)

Expand to show TLE details & history
Last TLE update: 1 day ago

TLE from 1 day ago
0 CZ-6A DEB
1 56250U 22151ABS 26227.82348341  .00001358  00000-0  37621-3 0  9990
2 56250  98.5571 257.3830 0089405 169.6535 190.6523 14.45954197179174
Epoch: 2026-08-15T19:45Z
TLE epoch observation values (Epoch: 2026-08-15T19:45:48.966Z)
Latitude
-0.00007°
Longitude
-3.29984°
Altitude
804.414 km
Speed
7.418 km/s
True Right ascension
17h 09m 31s
True Declination
0° 00' 00"
Sunlit
Object was in daylight at epoch
Visualization orbit readout
Latitude
Unknown
Longitude
Unknown
Altitude
Unknown
Speed
Unknown
Apparent Right ascension
Unknown
Apparent Declination
Unknown
Sunlit
N/A
Visualization observer readout
Local Sidereal Time
17:08:52
Azimuth
Unknown
Elevation
Unknown
Doppler factor
Unknown
Orbital elements
Apogee altitude
799.614 km
Perigee altitude
672.406 km
Semi-major axis
7,114.147 km
Eccentricity
0.00894
Inclination
98.5571°
RAAN
257.383°
Arg. of periapsis
169.6535°
True anomaly
190.46498°
Mean anomaly
190.6523°
Eccentric anomaly
190.55844°
Mean motion
3.61709 °/min
Orbital period
99.53 mins
BSTAR
0.00037621
Loading maneuver chart data...
Computing Atmospheric mass density...
Loading historical data...
Loading historical data...
Loading historical data...
Loading historical data...
Loading historical data...
Loading historical data...
Loading historical data...

Documentation

Showing up to 5 results
|